TimeAKST,TemperatureF,Dew PointF,Humidity,Sea Level PressureIn,VisibilityMPH,Wind Direction,Wind SpeedMPH,Gust SpeedMPH,PrecipitationIn,Events,Conditions,WindDirDegrees,DateUTC
12:23 AM,41.0,35.1,79,30.10,10.0,ENE,18.4,26.5,0.00,,Overcast,70,2014-01-16 09:23:00
12:54 AM,39.9,35.1,83,30.09,10.0,East,13.8,26.5,0.00,Rain,Light Rain,80,2014-01-16 09:54:00
1:38 AM,39.0,35.1,86,30.08,10.0,ESE,11.5,24.2,0.00,Rain,Light Rain,110,2014-01-16 10:38:00
1:54 AM,39.0,35.1,86,30.08,10.0,East,15.0,23.0,0.01,Rain,Light Rain,80,2014-01-16 10:54:00
2:04 AM,39.0,35.1,86,30.07,10.0,East,13.8,21.9,0.00,Rain,Light Rain,80,2014-01-16 11:04:00
2:45 AM,37.9,35.1,89,30.06,5.0,ENE,12.7,23.0,0.01,Rain,Light Rain,70,2014-01-16 11:45:00
2:54 AM,37.9,35.1,89,30.07,4.0,East,11.5,19.6,0.01,Rain,Light Rain,80,2014-01-16 11:54:00
3:26 AM,39.0,36.0,89,30.04,2.5,East,18.4,29.9,0.04,Rain,Rain,80,2014-01-16 12:26:00
3:38 AM,39.0,36.0,89,30.04,3.0,East,16.1,26.5,0.05,Rain,Light Rain,80,2014-01-16 12:38:00
3:54 AM,39.0,36.0,89,30.04,3.0,ENE,20.7,28.8,0.06,Rain,Light Rain,70,2014-01-16 12:54:00
4:07 AM,39.0,36.0,89,30.02,2.5,ENE,18.4,26.5,0.00,Rain,Light Rain,70,2014-01-16 13:07:00
4:20 AM,37.9,36.0,93,30.01,3.0,ENE,16.1,26.5,0.01,Rain,Light Rain,70,2014-01-16 13:20:00
4:36 AM,39.0,36.0,89,30.00,3.0,ENE,20.7,29.9,0.02,Rain,Light Rain,70,2014-01-16 13:36:00
4:54 AM,37.9,36.0,93,29.99,4.0,East,16.1,31.1,0.02,Rain,Light Rain,80,2014-01-16 13:54:00
5:31 AM,39.9,37.0,89,29.97,6.0,ENE,18.4,32.2,0.01,Rain,Light Rain,70,2014-01-16 14:31:00
5:54 AM,39.9,37.0,89,29.97,8.0,ENE,19.6,29.9,0.01,Rain,Light Rain,70,2014-01-16 14:54:00
6:54 AM,41.0,37.9,89,29.91,8.0,ENE,17.3,31.1,0.00,Rain,Light Rain,70,2014-01-16 15:54:00
7:11 AM,42.1,39.0,89,29.90,10.0,ENE,19.6,32.2,0.00,Rain,Light Rain,70,2014-01-16 16:11:00
7:33 AM,42.1,39.0,89,29.89,10.0,East,20.7,36.8,0.00,Rain,Light Rain,80,2014-01-16 16:33:00
7:42 AM,42.1,39.0,89,29.88,10.0,ENE,24.2,36.8,0.00,Rain,Light Rain,70,2014-01-16 16:42:00
7:54 AM,43.0,39.0,86,29.89,10.0,East,20.7,34.5,0.00,Rain,Light Rain,80,2014-01-16 16:54:00
8:54 AM,43.0,39.0,86,29.87,10.0,ENE,23.0,34.5,0.02,Rain,Light Rain,70,2014-01-16 17:54:00
9:32 AM,43.0,39.9,89,29.86,4.0,ENE,27.6,41.4,0.01,Rain,Light Rain,70,2014-01-16 18:32:00
9:54 AM,43.0,39.9,89,29.87,6.0,East,21.9,38.0,0.02,Rain,Light Rain,80,2014-01-16 18:54:00
10:06 AM,43.0,39.9,89,29.87,7.0,East,28.8,40.3,0.00,Rain,Light Rain,80,2014-01-16 19:06:00
10:54 AM,43.0,39.9,89,29.90,4.0,East,24.2,38.0,0.01,Rain,Light Rain,90,2014-01-16 19:54:00
11:42 AM,42.1,39.9,92,29.89,4.0,East,24.2,34.5,0.03,Rain,Light Rain,90,2014-01-16 20:42:00
11:54 AM,42.1,39.9,92,29.91,4.0,East,20.7,39.1,0.04,Rain,Light Rain,90,2014-01-16 20:54:00
12:20 PM,42.1,39.9,92,29.90,4.0,ESE,20.7,35.7,0.03,Rain,Light Rain,110,2014-01-16 21:20:00
12:27 PM,42.1,39.0,89,29.91,4.0,East,18.4,33.4,0.04,Rain,Light Rain,90,2014-01-16 21:27:00
12:54 PM,42.1,39.9,92,29.93,4.0,East,23.0,40.3,0.07,Rain,Light Rain,80,2014-01-16 21:54:00
1:54 PM,42.1,39.9,92,29.95,4.0,East,20.7,32.2,0.05,Rain,Light Rain,80,2014-01-16 22:54:00
2:03 PM,42.1,39.9,92,29.94,4.0,East,20.7,38.0,0.00,Rain,Light Rain,80,2014-01-16 23:03:00
2:54 PM,42.1,39.9,92,29.97,10.0,East,20.7,35.7,0.00,Rain,Light Rain,80,2014-01-16 23:54:00
3:01 PM,42.1,39.9,92,29.96,10.0,East,20.7,32.2,0.01,,Overcast,80,2014-01-17 00:01:00
3:54 PM,42.1,39.9,92,29.98,10.0,East,19.6,33.4,0.01,Rain,Light Rain,100,2014-01-17 00:54:00
4:17 PM,42.1,39.9,92,29.98,8.0,East,18.4,32.2,0.00,Rain,Light Rain,80,2014-01-17 01:17:00
4:54 PM,43.0,39.9,89,29.99,10.0,East,16.1,26.5,0.00,,Overcast,100,2014-01-17 01:54:00
5:54 PM,43.0,39.9,89,30.02,10.0,East,15.0,25.3,N/A,,Overcast,100,2014-01-17 02:54:00
6:54 PM,42.1,39.9,92,30.05,10.0,East,12.7,21.9,N/A,,Overcast,80,2014-01-17 03:54:00
7:54 PM,43.0,39.9,89,30.07,10.0,ENE,15.0,25.3,N/A,,Overcast,70,2014-01-17 04:54:00
8:50 PM,42.8,39.2,87,30.07,10.0,East,15.0,28.8,N/A,,Overcast,80,2014-01-17 05:50:00
8:54 PM,43.0,39.9,89,30.08,10.0,ENE,19.6,27.6,N/A,,Overcast,70,2014-01-17 05:54:00
9:54 PM,44.1,39.9,85,30.10,10.0,ENE,20.7,29.9,N/A,,Overcast,70,2014-01-17 06:54:00
10:04 PM,44.1,39.9,85,30.09,10.0,ENE,18.4,32.2,N/A,,Overcast,70,2014-01-17 07:04:00
10:27 PM,44.1,39.9,85,30.10,10.0,ENE,15.0,25.3,N/A,,Overcast,70,2014-01-17 07:27:00
10:38 PM,44.1,39.9,85,30.10,10.0,East,11.5,25.3,N/A,,Overcast,80,2014-01-17 07:38:00
10:54 PM,44.1,39.0,82,30.11,10.0,ENE,16.1,27.6,N/A,,Overcast,60,2014-01-17 07:54:00
11:54 PM,44.1,39.0,82,30.13,10.0,East,8.1,23.0,N/A,,Overcast,80,2014-01-17 08:54:00